EW8749 Weather Reports


time (UTC)temp
C
wind
direction
speed
KPH
gust
KPH
rain 1hr
cm
rain 24hr
cm
rain mn
cm
humidity
%
barometer
mb
20260505060051 14 315 3.2 17.7 0.00 0.05 0.03 68 1019.7
20260505054550 14 306 3.2 14.5 0.00 0.25 0.03 67 1019.6
20260505053049 14 253 6.4 14.5 0.00 0.25 0.03 67 1019.6
20260505051547 14 353 4.8 16.1 0.00 0.25 0.03 66 1019.5
20260505050122 14 299 3.2 17.7 0.00 0.25 0.03 66 1019.4
20260505041555 14 267 8.0 19.3 0.00 0.25 0.03 67 1019.1
20260505040054 14 334 1.6 17.7 0.00 0.25 0.03 67 1019.2
20260505034542 14 306 4.8 22.5 0.00 0.28 0.03 66 1019.2
20260505033045 14 244 8.0 22.5 0.00 0.28 0.03 68 1019.4
20260505031544 14 274 9.7 17.7 0.00 0.28 0.03 67 1019.5
20260505030040 14 251 9.7 25.7 0.00 0.28 0.03 67 1019.5
20260505024534 14 353 6.4 24.1 0.00 0.28 0.03 68 1019.5
20260505023039 13 237 11.3 22.5 0.00 0.28 0.03 67 1019.8
20260505021534 13 284 4.8 17.7 0.00 0.28 0.03 68 1020.1
20260505020035 13 243 6.4 12.9 0.00 0.28 0.03 69 1020.5
20260505014527 13 172 6.4 19.3 0.00 0.51 0.03 70 1020.5
20260505013026 13 241 6.4 17.7 0.00 0.51 0.03 69 1020.6
20260505011529 13 302 8.0 19.3 0.00 0.51 0.03 70 1020.6
20260505010023 13 331 6.4 17.7 0.00 0.51 0.03 70 1020.6
20260505004531 12 261 4.8 17.7 0.00 0.58 0.03 73 1020.7
20260505003114 12 305 6.4 19.3 0.00 0.58 0.03 75 1020.6
20260505001510 12 262 4.8 17.7 0.00 0.58 0.03 78 1020.4
20260505000010 12 347 8.0 16.1 0.00 0.58 0.03 78 1020.4
20260504234504 11 275 8.0 20.9 0.00 0.58 0.03 77 1020.1
20260504233002 11 326 8.0 16.1 0.00 0.58 0.03 80 1020.1
20260504231558 11 226 6.4 17.7 0.00 0.58 0.03 81 1019.9
20260504230156 11 265 3.2 17.7 0.00 0.58 0.03 82 1020.0
20260504224608 10 216 4.8 12.9 0.00 0.94 0.03 83 1020.2
20260504223050 10 264 0.0 8.0 0.00 0.94 0.03 85 1020.3
20260504221543 10 257 4.8 9.7 0.00 0.94 0.03 85 1020.2
20260504220040 10 259 1.6 9.7 0.00 0.94 0.03 86 1019.9